RH
95 96 96 96 96 93 93 95 96 95 91 90 90 96 98 95 95 96 93 90 93 95 95 98 96 93 85 73 57 34 16 12 12 13 12 12 13 13 12 14 16 15 13 11 13 18 21 19 15 15 11 8 17 21 20 25 27 23 24 26 23 19 16 14 12 12 12 10 11 11 14 14 6 42 86 74 64 79 86 89 89 82 72 67 65 66 80 96
95 96 97 94 95 94 92 96 99 94 92 87 79 89 92 87 92 96 95 91 91 93 94 96 96 97 89 73 60 36 19 17 15 10 10 16 17 14 11 10 12 15 14 13 13 16 20 22 19 15 14 12 16 22 22 26 28 24 27 26 21 20 17 13 12 11 11 11 12 13 15 11 11 48 80 75 78 82 80 89 94 92 84 77 75 76 86 96
95 94 95 92 93 93 91 94 99 96 97 91 82 91 82 71 81 88 95 95 91 94 96 94 95 98 90 78 61 36 26 24 18 14 16 25 25 17 14 11 9 12 13 13 12 15 20 22 19 17 18 15 17 23 22 24 26 25 27 23 20 21 19 17 15 14 14 14 14 14 14 9 23 63 79 70 76 77 73 85 92 96 96 93 90 84 90 98
96 94 93 93 91 91 94 96 98 98 100 94 89 96 83 73 80 80 89 96 92 93 97 96 96 95 93 86 59 34 34 28 18 17 23 28 28 25 18 12 9 9 11 12 12 14 18 20 18 19 21 18 20 25 23 24 24 25 25 21 21 22 20 19 18 17 16 16 15 13 13 10 17 43 68 75 76 73 71 81 89 94 93 90 94 91 91 96
97 96 93 94 92 93 96 97 99 98 97 94 92 95 87 84 90 88 90 97 95 94 97 94 92 95 98 89 58 39 35 24 21 24 28 29 26 27 22 14 10 8 10 11 12 13 16 18 16 17 20 17 20 23 23 24 24 23 25 23 23 22 21 19 18 16 15 15 13 13 13 12 10 23 58 74 65 64 69 78 88 95 84 73 85 93 94 97
94 96 95 95 94 93 95 97 99 98 96 93 91 94 90 83 89 96 95 97 98 95 95 91 92 98 99 91 64 46 34 19 25 29 28 30 26 26 24 19 14 8 8 10 11 12 15 18 14 13 15 15 17 20 20 24 24 21 22 23 23 22 20 18 17 16 15 15 13 14 12 12 12 15 44 60 54 59 66 73 85 97 91 80 87 92 94 98
90 93 95 95 97 94 93 95 96 97 97 95 92 92 89 80 84 96 96 94 97 97 96 94 97 97 96 95 71 57 52 26 21 29 27 26 26 24 22 22 20 14 9 9 11 12 14 17 14 13 14 13 16 18 17 20 22 21 20 21 21 21 19 18 17 16 16 15 13 14 12 13 11 12 40 59 62 66 63 66 78 92 96 95 98 96 96 99
89 90 91 93 96 95 94 94 95 97 95 97 94 90 88 84 87 95 96 95 95 96 97 98 101 97 97 97 82 80 70 27 11 24 28 26 25 23 22 21 24 23 15 11 10 11 15 16 14 14 13 13 14 16 16 17 18 20 20 19 19 18 18 16 15 15 14 13 12 11 12 11 7 19 53 71 73 73 69 73 81 89 96 98 101 99 99 100
90 90 91 90 90 91 91 91 94 95 95 97 96 93 87 83 91 96 97 98 97 96 95 96 99 98 100 97 95 88 55 19 13 17 19 22 21 20 21 21 25 29 24 15 11 12 15 16 16 14 12 12 14 14 15 15 15 17 17 16 16 15 16 15 14 14 12 11 10 11 10 10 27 49 67 81 86 82 80 88 91 93 98 100 100 100 100 100
89 90 92 90 89 90 89 89 91 92 95 96 96 97 89 82 85 88 93 97 96 97 96 97 95 97 99 94 100 82 36 21 26 19 15 16 14 16 21 24 26 31 30 21 14 13 14 16 17 14 12 12 13 13 14 14 13 15 15 15 15 14 16 14 14 12 10 11 9 12 8 13 51 63 59 83 95 90 90 96 98 97 100 100 100 100 99 100
89 89 90 89 87 87 86 88 90 89 93 96 96 98 95 88 79 74 85 94 94 94 97 97 92 95 93 94 104 73 27 23 27 24 24 18 15 16 20 25 27 31 33 26 18 14 13 17 18 15 12 11 13 13 14 14 13 14 13 14 14 13 14 12 13 11 10 11 8 12 8 18 50 48 48 83 96 92 93 95 98 98 100 100 99 100 99 100
89 88 87 86 86 84 83 86 89 88 89 93 96 96 97 95 85 76 75 83 91 92 97 99 96 96 91 98 97 51 20 24 21 20 23 19 18 18 20 24 27 32 34 27 20 14 14 19 19 16 12 11 12 12 13 13 13 12 10 12 12 10 12 11 11 10 10 10 8 11 10 19 38 45 67 92 93 91 90 92 97 95 98 100 99 100 100 100
88 87 86 85 85 85 84 84 86 88 86 89 93 93 93 93 89 80 63 66 86 94 96 99 99 95 94 102 81 33 19 22 16 15 15 15 16 17 21 23 26 33 33 27 19 14 17 20 17 15 12 11 11 11 12 12 12 11 10 12 12 13 13 12 11 10 10 9 8 11 10 13 20 44 83 95 90 90 86 89 93 92 97 99 99 100 100 100
88 86 86 86 84 83 84 84 85 88 85 87 93 93 90 87 86 76 56 54 76 96 98 97 100 95 97 97 58 25 22 18 13 14 14 15 13 14 19 22 27 32 31 28 22 17 20 21 16 15 15 13 12 12 12 12 12 11 11 11 12 15 14 12 12 11 10 10 9 9 12 10 15 52 89 91 88 85 83 89 89 91 96 95 97 99 99 99
83 86 87 86 85 84 84 84 84 85 85 88 95 95 86 83 84 66 49 50 61 84 98 97 98 94 102 91 45 25 27 21 19 21 23 20 13 13 17 19 25 30 30 29 27 24 25 25 20 19 19 17 15 14 12 12 12 12 13 14 14 15 13 12 13 14 10 10 11 9 12 8 17 62 88 85 88 84 81 86 87 91 93 93 95 95 96 96
61 72 82 86 86 85 84 83 82 83 84 89 95 94 85 84 79 55 50 59 52 71 99 99 90 94 103 78 38 31 32 30 29 29 32 25 17 16 16 19 23 28 30 29 30 28 27 26 23 21 18 17 17 15 13 13 14 13 14 17 17 14 13 13 12 14 10 10 11 8 13 8 19 66 87 83 87 82 82 85 87 90 89 93 95 93 95 94
55 53 64 81 88 85 84 84 82 82 85 91 93 92 87 81 68 56 66 64 47 67 93 89 86 97 93 59 35 35 34 36 34 32 35 30 28 22 15 19 22 25 28 27 29 27 27 25 21 20 17 16 16 14 15 17 18 17 16 18 19 15 15 14 11 12 10 10 10 8 12 9 22 65 85 84 85 80 83 84 85 88 86 92 94 93 93 92
74 60 51 64 83 87 84 84 84 82 85 92 92 90 86 75 67 73 78 58 53 82 91 88 95 87 67 53 45 38 34 38 34 32 36 32 32 26 17 18 20 23 25 26 27 25 27 24 18 19 17 17 16 14 18 18 17 20 19 18 17 15 14 14 11 11 11 10 9 11 12 8 28 65 79 81 83 80 80 80 83 87 88 92 92 92 94 93
84 79 63 55 70 85 85 83 85 84 85 91 92 91 82 70 75 86 83 65 67 83 78 84 91 58 34 37 37 33 35 40 35 33 34 33 34 28 19 16 17 21 22 25 28 24 25 23 20 21 19 18 16 13 15 14 14 17 18 16 15 14 13 13 12 11 12 11 9 11 10 11 40 72 75 76 82 79 78 81 86 88 89 92 91 90 93 94
87 87 80 64 60 76 85 83 86 87 88 91 92 93 80 69 79 88 90 86 78 70 62 70 76 52 34 31 29 32 35 37 38 37 35 37 38 29 21 18 16 19 22 25 29 26 24 26 25 21 18 17 14 13 13 14 15 14 15 15 13 13 12 11 11 10 11 11 10 13 11 17 49 72 71 74 80 77 77 83 87 88 88 90 91 90 89 93
88 87 88 81 65 68 81 84 86 88 89 92 94 99 89 77 85 91 93 93 79 70 69 67 70 68 54 37 36 43 46 44 39 36 38 41 41 32 22 19 17 20 24 26 31 29 26 31 29 19 16 15 15 18 18 17 16 14 14 14 14 13 12 11 11 11 12 11 12 17 13 20 52 71 72 75 76 73 75 79 81 82 84 87 91 89 88 92
83 86 87 90 79 68 75 82 84 84 88 93 96 101 92 79 89 96 95 97 83 74 76 73 77 83 66 43 42 54 64 62 42 27 32 39 40 32 22 19 18 20 26 29 34 35 33 34 29 21 18 15 18 21 17 17 17 16 14 14 15 13 12 12 12 14 13 9 13 16 11 17 42 63 71 75 72 71 75 77 77 77 79 83 86 87 88 93
78 83 87 93 89 74 71 80 82 81 87 93 98 99 86 77 88 93 96 103 88 74 75 73 79 85 70 50 49 63 71 69 54 32 28 36 38 33 24 18 18 21 27 30 33 39 40 36 29 25 21 16 20 21 17 18 17 16 15 14 15 14 13 13 12 14 15 13 15 15 13 16 24 41 64 75 73 73 76 78 77 76 76 77 81 85 88 92
70 75 84 91 94 80 68 75 79 79 84 91 98 92 79 77 86 91 97 101 88 79 74 66 72 77 68 58 58 68 69 65 58 38 28 36 37 33 25 19 21 24 25 26 31 37 35 32 29 26 22 17 19 20 18 17 16 19 18 13 14 13 13 14 14 15 16 17 17 14 13 16 19 33 61 76 75 74 76 78 77 76 77 77 82 87 88 92
67 70 79 87 96 83 67 69 75 80 84 90 92 82 75 78 84 91 98 95 84 78 73 68 74 75 70 68 63 62 66 66 55 34 28 36 35 31 26 21 22 24 24 25 30 34 29 28 29 26 22 20 19 20 18 15 15 20 19 14 13 13 12 13 14 15 15 15 17 16 13 17 21 27 46 68 78 75 73 76 77 77 79 80 84 89 90 92
70 69 76 89 97 83 70 72 80 90 93 90 86 79 80 83 85 92 96 94 81 65 62 65 66 63 62 71 70 58 58 58 44 29 29 34 33 29 26 23 22 24 25 23 26 29 26 27 28 26 25 23 21 21 18 15 15 17 19 16 13 12 12 12 12 13 15 15 19 20 14 17 21 18 25 49 73 74 69 73 74 75 79 80 81 87 92 92
72 71 78 91 95 83 74 77 84 94 97 91 86 87 86 81 84 92 93 95 80 52 53 64 59 52 53 66 68 49 40 41 37 35 33 33 35 30 25 24 24 26 23 24 32 29 24 30 31 27 27 26 24 24 20 16 14 17 19 16 13 13 13 13 12 13 15 17 20 20 15 16 18 19 22 37 65 75 69 69 72 73 77 79 80 85 91 92
73 76 84 94 93 81 73 75 79 88 97 95 92 95 88 78 85 93 94 95 74 41 42 56 54 49 54 65 61 42 34 33 35 38 31 30 36 31 27 25 23 25 22 26 37 29 23 32 33 28 30 29 26 23 21 17 14 18 19 14 13 13 12 13 11 13 18 17 17 16 16 17 17 21 25 30 53 73 70 66 67 71 74 76 80 84 90 93
76 78 87 93 86 75 72 75 75 83 97 97 97 98 87 84 91 93 94 86 62 42 38 45 50 52 60 67 58 45 43 36 33 37 32 33 39 32 29 27 22 24 21 23 30 24 21 28 27 27 29 28 26 21 18 18 17 18 18 14 14 13 13 15 12 13 20 21 18 16 16 17 16 19 24 28 42 58 66 64 60 65 72 74 78 84 90 91
79 80 85 87 81 75 72 74 77 86 95 95 98 97 88 92 94 96 97 74 55 53 41 36 48 56 63 67 59 51 48 41 39 46 43 38 39 33 27 24 21 22 22 23 24 20 19 24 24 25 26 25 24 20 16 17 17 16 16 14 15 17 18 20 20 17 20 23 20 17 16 16 17 18 20 26 33 41 54 63 63 65 70 74 77 84 90 91
78 79 83 85 82 78 74 72 77 87 93 94 97 93 92 98 94 96 88 56 54 71 56 44 53 57 60 62 57 52 48 43 40 43 41 37 39 36 27 23 23 24 26 28 26 19 19 24 24 23 24 23 22 21 18 16 15 14 14 14 18 22 22 22 24 22 23 24 20 18 17 16 17 18 19 24 29 34 45 56 64 67 67 72 77 81 88 93
77 77 79 84 81 78 77 72 75 87 94 98 96 89 93 99 95 91 70 44 66 92 76 60 56 54 58 57 51 49 45 40 37 36 35 34 40 38 28 25 28 31 35 36 31 23 20 22 20 21 24 22 21 24 21 17 15 14 14 16 18 22 24 24 25 25 24 23 25 24 19 17 17 16 19 21 22 31 44 51 58 64 66 71 76 80 89 97
77 73 74 78 77 75 73 73 80 87 92 98 98 91 95 100 91 75 54 50 78 95 81 67 59 55 60 60 52 46 40 36 34 33 32 33 39 37 28 23 25 31 35 35 31 27 25 22 17 20 25 21 20 24 24 22 19 16 16 16 17 22 28 29 27 27 26 24 28 25 21 22 19 20 27 30 33 45 60 66 63 63 70 73 75 83 94 99
83 76 75 75 76 76 77 85 92 88 91 99 95 90 96 98 79 57 52 63 76 80 75 69 64 60 60 59 49 38 36 35 31 31 33 36 39 36 30 25 23 25 29 31 33 30 30 28 20 19 23 20 20 21 21 22 19 17 16 14 17 21 23 24 22 23 25 26 29 25 22 22 20 38 57 58 65 73 76 83 77 66 72 79 80 89 97 98
88 82 82 79 80 83 88 95 93 87 95 97 88 89 94 87 68 59 69 78 77 78 74 64 62 61 59 57 44 31 32 32 28 30 34 36 39 36 30 26 24 24 26 32 35 29 29 29 20 16 19 18 20 19 16 20 21 20 16 14 19 19 20 27 27 29 29 25 29 29 29 35 37 57 76 71 75 80 79 89 85 68 70 80 88 95 97 97
86 82 81 85 88 89 91 93 90 91 96 89 83 87 89 80 67 66 76 77 78 84 76 63 60 60 61 57 43 33 31 28 27 31 34 34 35 33 28 25 23 22 23 32 37 32 29 29 20 17 19 17 19 19 17 19 23 23 19 18 20 16 21 33 32 38 34 20 31 38 33 45 48 52 73 77 75 78 81 86 78 65 68 78 89 98 98 99
79 77 76 88 97 93 90 92 94 98 94 84 81 79 77 76 64 63 75 78 83 87 78 73 71 65 67 64 51 40 31 26 27 30 34 36 34 31 27 23 21 19 20 26 32 32 29 27 22 18 17 16 18 19 16 17 19 22 21 19 20 17 22 29 27 35 31 17 35 50 44 50 43 44 75 84 74 76 79 81 77 70 71 77 89 99 99 99
71 71 73 85 97 95 95 97 98 98 89 82 83 74 71 75 63 63 78 81 85 83 75 82 80 65 65 68 62 55 38 25 27 30 32 34 33 29 25 23 20 18 18 19 25 31 28 23 22 19 15 15 18 19 19 19 15 18 20 15 18 23 25 28 28 33 32 25 39 58 67 63 44 51 79 76 67 75 76 79 83 76 73 80 93 100 99 100
65 68 72 80 93 96 97 98 96 94 86 82 84 74 66 66 62 70 78 75 80 82 78 84 81 68 66 63 63 65 49 28 25 29 31 31 29 26 23 23 20 17 17 17 22 30 30 26 23 19 16 15 18 21 24 23 18 17 19 15 18 24 23 26 28 27 29 29 34 55 75 64 42 52 68 61 62 72 72 79 84 76 76 87 98 101 99 100
66 79 82 81 89 94 95 97 93 88 81 77 76 69 58 52 57 69 71 68 74 77 76 79 77 73 71 62 59 64 59 42 28 27 30 26 25 28 23 19 19 18 17 17 21 29 32 32 28 23 22 19 18 23 22 22 22 19 20 21 21 23 20 22 26 23 24 29 35 51 61 46 40 55 60 56 63 69 71 78 80 77 83 93 100 101 99 101
73 89 89 83 87 92 96 96 87 79 76 71 68 66 58 52 59 70 72 75 77 75 76 77 74 75 75 69 62 55 58 58 40 28 27 21 24 32 24 18 19 17 17 19 21 28 32 33 32 30 27 20 18 22 19 17 19 18 21 22 20 22 22 22 29 29 25 30 40 46 37 29 46 66 68 64 66 68 71 75 79 85 92 98 101 99 99 101
83 85 81 82 91 96 94 87 80 78 76 70 68 66 61 59 67 71 72 78 80 81 87 83 75 74 73 69 65 55 58 65 49 31 28 24 26 29 21 19 18 14 19 21 19 32 42 37 33 32 27 22 22 26 22 17 16 15 18 19 17 23 22 18 26 31 28 35 47 44 28 31 59 79 82 80 72 69 73 78 87 96 98 100 100 99 101 99
95 90 83 87 97 100 93 80 78 82 76 70 69 65 60 65 72 72 73 80 84 89 93 84 72 68 62 58 63 64 66 67 51 37 35 30 24 22 18 20 18 13 20 21 19 36 46 36 29 29 28 24 24 28 25 17 16 17 18 18 18 22 22 21 28 30 29 33 41 38 26 34 65 83 86 84 77 74 77 84 96 101 99 100 100 100 100 96
100 96 91 93 99 101 94 82 78 80 75 72 71 65 64 71 76 75 78 84 88 91 90 80 65 58 55 54 62 68 67 66 57 45 44 38 29 25 20 18 20 17 17 22 26 32 35 33 32 32 34 33 28 31 31 22 18 20 22 19 17 19 24 30 34 30 27 30 32 29 23 35 66 87 88 84 80 82 86 91 98 100 99 100 100 100 99 97
99 95 93 97 101 99 94 89 87 83 78 76 75 73 73 76 75 73 77 83 87 89 88 78 64 60 62 61 63 67 65 66 64 54 49 47 42 40 28 16 19 19 16 24 29 27 30 38 37 32 37 40 34 34 36 32 26 27 29 22 15 19 24 27 30 26 26 36 35 22 22 48 80 92 91 91 90 93 95 96 98 99 99 101 100 100 100 99
98 93 91 94 99 99 96 97 97 91 86 83 82 81 82 83 82 80 83 88 90 90 87 79 70 71 72 66 67 72 68 65 64 60 59 55 51 52 42 27 20 17 21 31 32 33 40 42 39 39 39 34 32 40 44 36 27 30 34 26 16 19 23 24 28 24 25 39 39 28 40 73 96 97 91 92 95 97 99 98 100 100 99 100 100 99 99 97
99 94 92 94 97 98 97 97 97 94 92 91 89 90 89 89 91 90 90 92 90 88 87 81 76 75 71 66 72 78 74 69 64 62 64 60 57 59 54 44 33 22 30 38 32 35 40 35 38 49 51 46 46 60 64 45 31 33 36 29 21 23 29 30 29 31 36 36 31 41 66 78 83 88 86 84 90 96 98 99 99 100 100 100 100 99 98 98
96 93 96 99 97 95 94 96 97 95 93 93 94 95 92 89 91 92 93 94 91 91 91 86 80 78 73 71 77 81 78 73 67 66 68 65 65 61 50 49 47 37 39 40 36 42 38 30 41 49 56 67 66 68 75 66 60 63 56 40 28 26 33 35 31 35 39 26 19 47 73 64 59 76 79 75 82 89 95 99 98 99 100 99 99 99 98 100
96 93 96 99 97 94 93 95 96 94 91 92 94 94 93 92 90 90 93 97 98 95 94 92 86 83 81 77 78 82 78 71 67 70 74 70 69 64 52 50 54 49 46 39 42 52 38 33 57 57 53 72 73 67 75 76 82 92 84 69 56 42 35 33 37 46 47 41 42 60 76 68 60 70 74 72 79 86 94 101 98 96 98 99 100 100 99 100
99 97 97 98 96 95 97 96 94 91 90 92 93 91 92 93 91 93 97 99 101 97 92 97 96 87 81 75 72 74 76 76 72 70 73 69 66 67 60 55 54 51 47 42 47 54 39 42 73 68 52 68 75 69 73 75 83 94 96 97 87 62 43 40 54 66 61 66 76 75 79 81 73 72 77 81 87 90 93 98 98 97 97 97 99 100 99 101
100 99 99 100 94 92 97 98 94 92 90 90 91 91 95 97 93 96 97 92 96 97 92 94 94 86 78 74 74 78 81 85 81 74 76 72 66 68 67 65 62 51 44 48 55 56 47 56 76 63 46 63 76 72 73 77 80 80 86 100 93 68 56 59 70 73 61 68 86 77 69 76 77 79 87 92 93 91 89 92 96 97 96 95 98 100 100 100
99 98 100 101 95 91 96 99 97 96 92 90 92 92 94 94 85 87 94 89 87 91 90 88 87 86 83 77 77 82 83 85 85 83 85 80 74 75 74 76 77 62 51 56 63 64 58 57 65 51 38 59 78 73 66 66 64 59 70 92 93 83 84 84 87 91 78 69 71 58 51 65 77 83 93 99 96 90 87 89 93 96 95 93 94 96 98 100
Wind_Speed
17 16 16 16 16 15 14 15 15 15 16 16 16 16 16 16 16 15 14 16 17 17 18 18 18 18 17 18 19 20 19 18 17 16 17 18 16 17 17 12 10 12 15 14 12 11 10 9 8 7 8 10 9 10 13 10 11 11 3 4 6 5 5 4 6 4 1 3 4 6 9 6 9 6 0 3 8 11 13 9 10 12 5 12 16 23 34 28
18 17 17 17 17 16 16 16 15 16 16 16 16 16 16 15 16 17 15 15 16 16 17 18 19 18 19 18 18 19 19 17 18 17 16 17 17 17 18 18 17 15 16 16 13 11 9 8 8 8 9 10 8 9 12 9 11 8 1 4 7 4 4 4 5 3 2 6 10 10 7 6 9 3 2 3 7 11 12 8 9 10 9 14 16 25 33 27
19 18 18 17 18 18 18 18 16 15 16 16 16 17 17 15 14 15 16 16 15 16 17 17 18 19 18 19 18 17 16 16 17 14 13 14 15 16 17 18 22 22 20 18 14 12 9 7 8 9 10 8 7 9 10 9 10 7 3 6 6 3 2 5 7 6 8 10 10 9 6 7 6 1 4 5 8 10 11 11 12 14 17 16 20 31 32 27
18 19 19 18 18 18 19 20 17 16 16 16 16 17 18 17 15 14 15 16 15 16 17 16 17 20 19 19 18 14 14 15 11 9 12 12 10 13 17 18 21 23 24 21 17 14 10 8 9 11 11 7 7 9 7 10 9 5 6 6 2 4 4 6 8 9 11 10 7 7 9 8 4 3 5 8 9 9 11 14 12 17 26 24 27 34 31 27
19 19 19 18 18 18 20 20 19 18 17 17 17 17 18 18 17 16 16 16 15 15 17 16 17 19 19 19 17 13 10 8 3 9 12 12 9 9 13 18 21 23 25 24 21 17 12 11 12 11 9 5 6 7 5 12 10 4 5 4 1 4 4 4 5 6 8 8 7 7 9 8 6 5 7 12 10 6 8 12 8 15 26 29 33 36 30 28
20 20 19 19 19 20 20 20 20 20 19 19 18 17 18 18 17 18 18 17 16 15 15 16 17 17 18 19 18 12 5 4 2 7 12 12 7 5 8 13 18 23 25 26 23 19 15 14 13 10 7 4 6 7 5 13 12 5 4 3 5 7 6 4 5 8 9 8 7 7 9 10 8 6 9 16 14 6 4 10 10 14 20 25 33 36 31 29
21 21 20 20 20 20 20 20 21 22 22 21 19 20 19 18 17 18 18 18 17 16 14 15 16 16 18 19 17 11 8 12 7 7 10 9 3 3 4 5 10 19 25 27 26 22 18 17 15 11 8 3 5 7 6 10 10 8 5 2 6 10 8 8 9 11 12 10 11 12 12 10 8 6 6 15 16 9 4 9 14 16 19 21 27 30 28 27
21 21 21 21 21 21 21 21 20 22 23 22 21 22 21 20 18 18 19 18 17 16 15 15 15 14 16 18 14 11 14 20 14 11 10 8 6 8 8 7 4 13 21 26 28 26 22 20 18 13 7 3 6 8 7 7 6 9 8 2 5 8 8 10 10 12 13 12 14 13 10 9 8 6 5 9 11 9 4 9 16 18 20 22 26 26 25 24
21 21 21 22 22 21 22 22 21 21 22 23 23 22 23 22 19 19 19 18 17 16 15 14 14 14 14 16 12 9 15 17 12 15 18 16 15 13 11 9 6 9 19 23 27 28 23 22 21 16 7 5 8 8 9 8 5 8 9 5 6 8 8 9 9 10 10 11 11 8 9 9 5 4 4 5 7 6 6 12 17 20 22 24 26 26 25 24
21 21 21 21 22 22 22 23 22 22 21 23 24 22 23 24 22 20 19 19 19 17 16 13 13 13 13 13 7 6 12 10 6 10 17 19 20 15 9 7 6 6 15 23 26 27 25 22 23 18 7 5 9 7 8 8 4 5 8 7 8 10 9 8 7 10 9 11 12 8 9 7 2 3 2 4 7 8 11 14 17 21 24 25 25 26 26 24
21 21 21 21 22 22 22 22 22 23 22 22 23 22 22 25 26 24 20 19 19 19 17 13 11 12 13 11 8 11 9 4 4 5 8 14 18 14 9 7 5 5 12 21 25 26 25 20 20 17 5 5 9 5 5 7 4 3 4 5 7 7 8 7 7 11 8 8 10 8 6 4 3 3 2 4 9 12 15 17 18 21 23 25 25 26 25 22
21 21 22 22 22 22 22 22 22 23 23 22 22 23 23 24 27 26 22 21 19 18 17 13 10 12 15 16 22 22 10 6 11 12 10 12 15 13 10 10 7 5 10 18 24 25 22 17 17 15 6 6 8 3 4 7 4 2 2 4 4 3 6 8 8 8 6 5 6 6 4 3 5 2 1 6 11 13 15 18 19 20 22 24 24 25 24 22
21 21 22 22 22 22 22 21 22 23 23 22 22 22 24 25 27 28 27 24 20 17 17 14 11 13 15 19 29 28 18 16 20 19 17 16 17 13 10 12 10 7 8 14 20 24 22 16 15 14 8 7 5 2 2 2 2 3 3 3 4 5 5 5 6 6 7 5 5 6 3 4 4 2 4 10 14 15 16 18 19 21 23 24 24 25 23 23
22 22 22 22 22 22 22 21 21 22 22 23 23 22 24 27 27 28 29 28 23 19 17 15 11 13 16 22 29 26 20 21 21 19 16 16 18 15 11 12 11 9 10 12 16 21 22 18 16 12 7 6 3 2 1 2 1 2 3 2 3 5 3 2 3 7 8 6 8 9 4 3 3 3 8 13 15 16 17 19 20 21 23 24 24 24 23 23
24 23 22 22 22 22 22 22 22 22 22 22 22 22 24 27 27 28 29 28 25 19 16 15 13 12 14 23 28 19 13 16 14 9 7 10 16 14 11 13 13 11 10 12 13 16 20 19 16 8 4 6 3 1 1 1 1 1 3 4 3 5 3 0 2 7 8 4 9 9 4 3 0 4 11 14 16 16 17 20 21 21 22 24 24 23 23 22
25 25 24 22 22 22 22 21 21 22 22 22 22 23 24 25 26 28 27 24 23 18 14 13 13 11 10 14 16 10 10 12 8 4 3 6 10 10 9 11 13 12 10 11 12 13 15 14 12 8 5 5 5 3 2 1 3 1 4 4 3 6 3 0 3 4 4 1 7 7 3 2 1 7 12 13 16 16 16 20 21 21 22 23 23 22 24 23
23 24 25 24 22 22 22 21 21 21 22 21 22 23 23 23 25 24 22 19 16 11 11 9 6 9 12 11 11 10 8 8 6 4 3 6 7 9 12 12 13 14 11 11 11 12 13 11 9 8 4 3 4 5 4 6 7 3 3 2 1 4 4 3 3 2 1 4 6 6 4 2 1 7 12 14 17 17 17 19 21 21 20 22 22 22 24 25
23 23 23 24 23 22 22 21 21 21 21 21 21 22 22 22 21 18 14 11 4 4 6 8 4 4 11 14 14 10 5 5 7 5 4 6 6 9 14 15 14 16 14 12 10 12 12 9 7 5 3 5 6 9 9 6 6 5 4 4 2 2 3 5 4 2 3 5 7 6 6 3 1 7 13 15 17 17 17 19 21 21 20 22 23 23 23 24
24 23 22 22 23 23 22 21 21 20 21 21 20 20 20 16 13 11 7 2 5 6 2 9 13 6 4 7 9 7 7 8 7 6 5 5 4 9 16 17 16 17 14 9 8 11 10 6 5 6 7 9 9 12 9 3 5 6 5 5 5 4 3 3 3 0 2 4 7 7 7 4 5 9 12 15 17 17 16 17 18 19 20 21 22 23 23 22
23 23 23 22 21 22 22 21 21 20 19 19 18 18 15 9 6 5 4 6 9 12 13 13 20 19 14 15 13 10 12 12 10 8 6 4 3 10 18 18 15 14 10 8 8 10 11 6 8 9 8 9 9 9 6 4 5 8 6 6 5 4 4 2 1 1 1 2 4 5 6 5 8 10 11 15 17 15 15 16 18 19 20 21 21 22 23 22
23 23 22 22 21 21 21 21 20 19 17 16 16 14 10 6 5 5 7 12 18 23 25 26 26 27 28 28 24 18 14 14 16 14 11 6 3 9 17 16 12 9 7 9 8 7 11 9 8 6 6 10 8 6 7 4 6 8 6 6 4 4 4 1 1 2 2 2 2 3 5 7 9 10 11 14 15 14 17 18 20 21 21 21 20 21 23 21
24 23 22 21 21 20 20 21 20 19 17 14 14 13 10 7 6 8 11 12 20 26 28 30 29 32 34 33 33 28 14 10 17 18 13 10 9 8 13 14 10 7 7 9 7 6 9 8 6 8 7 10 8 6 9 7 6 5 5 5 5 3 2 2 2 2 2 2 0 2 5 5 5 6 10 14 14 15 19 20 21 23 22 22 22 23 22 21
24 23 21 20 20 20 19 20 19 18 17 14 14 13 9 7 6 9 11 9 19 26 27 30 30 34 36 35 33 27 15 9 14 19 14 12 13 11 11 11 9 9 10 11 10 8 7 5 9 9 8 11 8 7 9 7 5 4 5 5 4 3 2 4 2 2 1 1 1 2 2 2 3 3 6 12 15 15 17 19 19 21 22 22 24 24 23 24
23 21 20 19 18 19 19 19 18 18 16 14 15 11 8 8 7 12 9 7 12 16 19 23 26 32 35 30 23 20 18 15 14 18 16 12 13 11 9 8 9 10 10 11 10 8 4 7 13 10 10 13 10 9 10 9 6 4 5 5 4 4 3 2 0 2 0 1 2 2 2 1 4 6 7 10 15 14 15 18 18 20 21 20 21 24 26 26
21 20 19 18 16 18 19 18 18 16 14 14 13 9 7 8 8 11 6 5 8 8 8 10 14 21 24 19 14 15 16 16 19 19 14 15 17 11 7 8 9 10 12 10 8 7 3 7 16 13 11 13 11 10 11 11 8 5 5 6 6 5 2 1 1 1 3 3 1 0 5 3 2 6 9 9 12 13 14 17 19 22 21 21 22 23 25 25
20 19 17 16 14 16 17 15 14 12 11 11 7 5 6 7 9 7 2 3 6 4 1 3 7 7 9 13 16 15 7 9 20 24 17 15 19 14 8 8 6 6 11 10 4 4 3 7 14 14 12 13 11 9 10 11 8 5 6 8 7 5 3 2 1 1 3 3 1 1 5 4 1 5 8 9 12 15 15 15 19 22 22 23 24 23 24 26
18 17 15 13 12 15 15 13 12 12 11 7 4 2 5 8 10 4 2 3 4 2 3 3 4 4 5 12 23 16 3 3 11 21 23 18 19 16 9 8 6 4 7 7 4 3 6 9 11 13 14 12 11 8 8 11 9 4 6 11 10 7 6 4 2 2 1 1 0 0 2 3 2 3 3 6 11 14 15 15 17 21 23 24 25 24 25 27
16 15 12 11 11 13 15 14 13 14 14 9 5 5 7 9 8 3 3 3 2 2 3 3 3 4 4 13 26 14 2 3 4 13 25 22 18 14 9 8 8 9 9 9 8 3 6 10 10 12 12 9 8 7 9 12 7 2 6 11 11 9 8 6 4 3 1 1 4 2 2 4 3 2 1 4 10 12 15 17 17 20 25 27 26 26 26 27
15 13 11 11 12 13 13 15 15 14 15 14 10 8 7 6 4 3 2 3 3 1 2 5 4 4 7 12 20 13 5 3 1 9 22 21 17 9 4 7 8 11 10 6 6 3 3 12 14 12 10 8 7 8 12 13 5 3 8 9 8 8 7 5 5 4 1 3 7 5 5 5 4 3 3 4 8 11 13 15 17 21 26 27 27 27 26 27
15 13 12 12 14 14 13 15 15 13 15 15 10 7 7 2 4 4 3 2 1 1 3 4 4 5 9 9 9 11 7 5 4 9 15 14 16 8 3 8 9 9 6 3 6 3 2 9 13 9 7 8 9 9 11 11 7 9 9 8 7 5 3 2 1 2 3 5 6 6 7 6 4 3 5 5 5 10 13 12 14 18 24 27 28 29 28 26
16 15 14 14 15 14 14 14 12 11 12 9 6 5 3 2 3 3 4 1 3 2 3 2 4 5 6 4 3 6 6 5 0 10 10 9 12 8 4 9 8 6 6 6 7 3 4 7 7 4 7 10 10 7 5 6 10 10 7 7 7 4 2 2 2 2 6 6 3 4 7 7 7 4 4 6 6 8 12 13 15 17 23 27 29 29 27 23
17 16 15 15 15 14 15 13 10 11 9 5 2 2 2 3 3 4 1 2 2 2 4 3 2 3 2 4 3 5 5 3 5 10 9 9 9 6 5 7 7 7 8 9 8 4 5 5 1 2 9 13 11 8 4 3 8 9 6 8 8 5 4 5 5 5 6 4 1 1 6 6 7 5 4 7 8 7 7 9 12 17 23 27 28 27 23 22
17 17 15 14 14 13 12 10 9 12 9 5 2 1 4 3 3 5 4 2 1 2 4 3 6 9 6 5 3 6 4 1 6 9 9 10 8 5 4 3 4 4 4 8 8 6 5 1 2 4 7 12 13 10 7 5 9 11 9 10 9 6 6 6 6 4 3 3 1 1 4 4 4 4 4 6 6 5 5 8 10 14 20 24 24 22 22 23
17 17 16 14 12 10 9 7 7 10 7 3 1 2 5 5 1 3 3 2 4 4 5 7 11 10 4 5 2 6 5 3 7 9 8 9 9 8 6 4 4 2 5 8 6 8 9 3 6 7 4 9 12 9 8 8 9 9 5 6 7 5 5 5 5 5 3 3 2 3 4 4 4 2 2 3 4 4 7 9 11 13 15 15 14 17 22 25
18 17 16 14 11 8 7 7 6 7 4 4 2 3 5 5 1 0 0 3 4 5 9 12 9 3 3 3 3 6 5 2 7 8 7 9 8 7 7 6 4 3 8 9 3 6 9 3 3 4 2 9 10 5 8 10 8 5 3 4 6 5 3 2 1 2 2 2 3 4 2 2 2 1 2 3 4 5 7 8 11 13 13 13 13 19 25 28
20 17 13 10 7 6 7 6 5 6 5 4 2 4 4 3 2 2 2 3 3 4 11 11 4 1 2 2 2 6 4 1 7 8 5 7 7 6 6 4 3 4 7 7 2 3 7 3 2 3 4 8 10 9 8 10 7 3 5 7 4 3 4 3 1 2 1 4 3 3 2 1 1 3 2 2 4 4 5 7 10 13 15 17 17 22 29 31
21 19 10 6 8 6 6 4 6 9 8 5 3 4 2 1 4 4 3 2 1 1 6 7 4 4 2 1 0 3 4 3 5 6 4 5 5 6 7 4 4 6 6 5 2 1 4 4 2 5 7 7 9 12 10 7 7 6 8 7 4 3 1 1 2 2 2 6 2 1 3 3 3 3 2 2 5 5 6 7 9 12 16 19 18 23 30 31
23 18 7 5 11 6 2 5 10 11 7 4 5 4 2 1 4 4 4 2 1 1 4 3 3 5 5 2 2 1 3 4 5 5 5 5 3 5 9 5 5 7 6 5 3 1 3 4 3 5 9 7 6 9 9 6 3 3 6 8 5 4 4 2 2 3 4 4 2 1 2 3 5 4 2 5 8 8 8 9 10 12 16 19 20 24 29 31
20 13 4 6 12 5 6 7 9 9 5 3 5 4 1 2 1 5 6 3 2 2 3 2 2 4 5 4 3 2 1 3 5 4 4 4 3 6 10 7 6 8 7 6 4 2 2 3 3 4 5 7 7 7 9 9 3 1 6 8 4 2 4 4 2 2 4 4 3 2 1 3 5 5 6 9 10 10 11 11 11 14 17 19 22 25 28 31
15 8 1 6 11 2 8 7 7 6 3 2 3 3 3 3 1 5 6 4 2 1 1 2 3 4 5 5 3 1 2 1 4 3 3 5 2 3 8 8 8 10 8 8 6 3 2 2 3 3 2 6 8 7 9 11 8 6 9 9 5 1 1 3 2 1 1 3 3 3 2 4 2 3 7 10 9 10 11 10 10 12 16 18 20 24 27 28
12 4 1 7 11 3 12 8 4 3 2 3 2 3 5 4 2 3 4 4 2 2 3 4 5 5 5 5 3 2 2 1 2 1 1 6 4 2 7 9 11 11 7 7 6 3 2 2 2 4 5 7 7 3 5 10 10 9 8 8 8 5 4 5 5 2 0 1 2 2 3 2 1 0 5 6 6 7 8 8 9 10 13 14 17 22 26 25
9 3 4 10 8 8 12 4 2 2 2 2 2 4 6 4 2 2 2 1 0 4 5 5 6 6 6 6 4 3 2 1 2 2 1 5 4 3 10 14 14 14 8 5 6 4 2 2 3 3 4 4 2 3 4 10 10 7 6 7 6 6 6 8 7 4 3 2 2 1 2 1 2 0 4 5 5 7 9 9 8 9 12 15 19 21 25 28
8 7 7 9 3 12 9 1 2 2 3 3 5 6 6 4 1 1 1 2 2 2 4 5 6 6 5 5 4 2 2 1 2 2 1 3 4 2 9 17 16 14 9 4 5 5 2 2 3 3 2 2 1 3 2 6 8 7 6 7 7 6 5 4 3 4 5 5 4 2 3 1 1 2 3 4 5 8 10 10 10 11 13 19 24 25 28 33
11 10 8 8 2 10 6 1 2 2 4 4 5 7 6 4 3 4 3 3 3 1 2 4 5 5 4 3 4 3 2 1 1 1 2 2 1 0 8 18 16 11 8 6 6 7 4 1 4 4 5 5 4 4 4 5 7 7 6 8 10 8 5 3 2 3 5 6 7 5 4 1 2 4 2 4 7 8 9 12 14 14 16 21 27 30 32 34
10 7 4 7 2 7 5 1 1 2 3 4 5 5 5 4 4 8 7 5 6 5 3 5 6 6 7 6 5 5 4 3 2 1 1 1 0 2 6 17 17 9 8 9 11 10 5 1 3 4 6 8 8 7 5 5 5 4 4 9 12 12 10 5 2 4 5 5 7 8 5 1 1 3 4 6 7 7 10 15 17 18 20 23 28 32 32 33
6 3 3 4 1 5 6 3 1 2 3 3 4 4 5 4 3 6 8 6 8 9 6 7 7 7 7 5 4 4 3 3 3 2 2 1 0 2 3 12 15 11 9 12 15 10 2 1 3 3 3 4 4 3 2 4 7 5 6 10 12 12 12 8 4 5 5 4 5 6 3 2 3 6 8 8 8 8 10 14 18 20 22 25 28 33 35 36
3 2 3 3 1 2 5 5 4 3 3 2 2 2 3 4 3 3 6 6 7 8 6 7 7 5 5 4 2 2 1 1 3 2 1 1 1 1 2 5 8 10 10 12 14 8 2 3 5 2 2 1 1 1 1 4 9 8 8 11 11 10 11 10 8 5 5 5 5 5 4 5 7 10 13 12 11 9 9 12 18 21 22 25 30 34 36 34
4 4 5 4 2 1 2 4 4 5 6 4 2 2 3 4 4 2 3 4 5 6 5 4 5 6 8 5 2 1 1 1 0 1 1 1 1 0 2 3 2 6 7 7 8 4 2 4 3 2 4 2 1 2 2 2 4 4 6 10 12 12 12 12 11 7 8 7 5 5 9 8 7 11 14 13 12 11 11 13 19 22 21 24 31 36 34 30
7 6 6 5 3 5 7 7 6 6 7 5 3 3 3 4 5 3 2 2 3 4 4 2 3 7 6 5 4 1 1 0 1 2 1 1 1 1 2 3 2 3 5 6 4 1 2 3 2 3 4 3 2 3 5 5 4 3 2 4 7 10 13 13 10 6 7 5 3 4 11 8 3 7 12 12 13 15 15 16 20 24 24 23 26 30 30 27
8 7 8 8 7 8 9 7 4 4 4 4 3 2 3 4 5 4 2 3 2 2 2 1 6 8 2 4 4 1 1 1 1 2 2 1 1 2 1 1 2 3 4 4 3 1 2 2 1 2 4 3 3 4 5 6 5 4 1 2 3 6 8 7 5 4 4 2 0 4 8 5 2 4 9 13 16 17 18 18 19 23 28 28 23 22 24 25
12 12 12 9 6 4 4 3 3 2 2 2 2 3 3 3 5 7 4 5 7 5 0 6 10 8 2 2 2 1 2 3 4 4 4 3 1 2 2 2 1 4 5 3 1 1 1 2 1 2 4 2 1 4 6 7 7 4 2 3 6 6 4 2 2 4 5 5 6 5 5 4 5 8 12 14 17 17 18 21 20 20 26 30 27 23 23 26
17 17 14 7 4 3 4 3 2 1 2 1 2 3 4 5 7 8 5 4 4 4 1 9 12 8 4 3 2 3 6 8 8 9 6 3 1 3 3 2 1 2 4 3 2 0 2 5 3 3 5 3 1 2 6 6 4 2 3 2 4 3 3 2 1 2 5 6 8 5 3 3 9 13 13 14 15 16 19 23 23 23 24 28 32 31 28 29
Wind_Direction
317 316 318 320 317 319 321 320 321 323 325 325 327 328 328 329 327 326 326 324 321 321 320 319 319 319 315 312 308 301 295 292 283 273 266 264 262 251 241 228 214 211 216 223 222 220 219 209 197 193 190 181 183 182 181 182 175 175 177 208 218 212 199 173 182 191 238 325 302 323 351 328 329 340 38 124 163 154 152 152 150 166 174 178 182 173 168 166
314 314 316 318 318 318 320 320 321 323 323 325 326 325 325 327 327 326 324 319 318 319 317 317 318 316 314 312 310 307 305 300 290 278 266 262 260 253 243 232 224 216 212 216 217 217 217 212 201 193 184 176 180 179 184 184 182 186 147 214 222 195 173 179 198 204 250 291 310 315 337 330 324 330 168 154 164 160 156 148 139 138 146 170 172 170 169 167
310 312 313 316 317 316 318 317 318 323 324 326 327 326 324 323 322 321 321 319 316 316 314 314 314 313 315 314 312 315 315 309 299 281 254 249 252 249 244 233 226 221 217 216 215 214 211 204 198 194 182 178 183 176 184 187 189 201 194 223 227 167 182 223 227 243 261 280 303 306 317 322 318 227 189 176 176 185 181 165 152 150 153 159 163 168 171 168
303 309 311 313 314 313 315 316 317 321 321 324 327 325 325 325 322 314 314 317 316 313 311 311 310 311 315 313 312 323 328 316 297 254 225 221 230 237 239 235 226 221 219 218 217 212 205 188 181 186 183 178 180 175 185 189 185 190 202 231 188 140 214 234 236 252 269 276 281 299 310 311 317 268 221 169 176 211 209 190 173 168 165 161 164 169 171 168
296 301 306 308 309 309 310 312 314 317 317 320 324 324 325 327 324 320 318 316 314 310 309 310 308 312 317 312 311 329 338 324 252 206 198 191 207 223 230 233 226 219 217 218 217 208 198 184 176 181 187 174 168 177 196 192 188 185 211 248 132 157 228 238 243 262 280 287 288 298 306 306 308 280 212 184 196 217 214 205 190 174 171 168 168 169 169 167
293 295 298 300 302 304 305 306 309 312 313 317 321 321 323 326 324 323 321 319 317 310 308 311 309 310 314 313 315 324 310 272 181 185 187 179 196 220 229 240 228 218 216 215 213 206 195 184 181 181 182 177 178 185 189 188 195 215 220 235 216 217 236 247 263 278 286 291 295 288 294 299 293 279 222 211 217 209 208 213 193 168 171 171 169 170 169 168
294 294 293 294 295 297 298 299 303 306 309 312 316 319 320 323 323 320 318 319 318 314 311 310 312 309 308 312 317 318 269 246 225 182 184 178 198 293 284 277 234 218 214 213 209 202 193 183 183 180 174 175 188 196 189 180 193 223 228 189 219 226 232 252 264 275 283 282 288 290 289 286 273 282 240 218 216 212 209 210 199 171 166 170 167 169 169 167
297 296 294 292 291 293 294 295 296 299 304 307 311 316 318 319 319 316 316 317 316 315 311 308 312 308 307 316 323 317 273 253 238 217 211 214 261 304 314 330 283 217 211 213 209 201 191 183 182 177 178 189 182 189 188 180 190 221 229 187 224 237 240 259 265 273 283 284 292 292 278 275 272 271 239 215 210 218 205 182 189 172 165 170 169 168 167 168
298 298 296 293 291 292 293 293 293 294 299 302 306 312 315 316 315 313 315 316 315 311 306 305 309 307 303 310 321 307 273 264 257 237 233 244 260 279 298 322 325 222 206 208 210 204 191 184 186 182 189 193 181 185 182 196 206 208 219 212 231 248 252 261 264 271 281 285 292 286 272 284 278 239 227 214 197 194 167 159 168 164 164 170 171 171 169 170
298 298 297 295 293 292 292 291 291 292 293 296 301 306 310 313 312 312 313 313 312 308 303 298 302 305 296 299 309 280 267 274 286 241 234 244 254 265 278 293 314 253 208 200 203 204 195 192 194 188 194 185 182 189 176 194 207 186 207 221 238 250 259 259 253 264 277 284 278 258 273 292 200 211 240 192 181 165 148 151 161 162 165 170 172 172 172 173
299 299 298 297 295 293 292 291 290 290 289 290 295 300 305 310 313 313 311 309 309 307 302 293 292 293 285 280 254 248 264 282 292 262 242 244 247 252 247 242 274 264 217 201 197 199 199 201 194 184 188 177 176 185 192 207 217 177 182 217 234 246 256 240 241 262 265 280 269 233 258 290 189 232 284 176 177 168 152 152 163 165 165 169 171 173 174 175
301 301 300 298 297 294 293 291 290 288 287 286 289 295 299 304 310 312 311 309 305 302 299 294 286 277 277 268 247 246 262 285 280 275 264 254 246 242 226 219 226 236 221 206 198 194 195 196 189 185 180 168 165 159 203 212 219 190 181 235 241 256 258 220 221 242 217 249 262 216 238 239 184 204 249 179 174 170 159 156 164 168 168 170 172 173 175 177
302 300 301 299 298 296 294 292 290 288 287 286 285 290 295 299 304 310 314 311 300 294 294 293 282 271 273 263 255 262 280 282 276 268 260 259 251 242 222 209 203 200 204 203 197 190 189 185 181 185 166 153 157 130 160 175 209 199 182 244 257 265 264 209 200 193 189 246 225 186 245 224 167 152 181 175 173 170 164 162 166 169 169 172 174 174 176 179
301 301 300 299 300 299 296 293 290 289 288 287 285 285 291 295 300 309 313 306 293 284 283 282 272 266 264 261 271 285 290 276 266 260 261 260 253 246 226 205 192 184 182 185 188 188 190 184 178 178 162 157 145 90 69 68 195 184 165 214 234 240 245 173 171 167 189 240 193 185 248 230 114 121 178 175 173 174 168 165 167 169 171 174 176 175 178 182
295 298 300 299 300 298 297 295 292 290 288 286 285 286 289 293 302 309 307 299 291 278 269 270 259 258 267 272 285 294 274 261 259 265 277 256 247 243 225 205 190 180 173 172 174 182 189 188 185 179 164 185 181 90 50 54 164 146 191 203 189 213 233 348 174 179 203 215 180 195 231 234 119 143 176 176 173 179 175 167 167 171 172 175 177 177 180 183
297 293 294 298 300 297 298 298 295 292 289 286 285 287 288 295 306 307 301 298 292 271 246 253 248 241 266 285 293 285 253 254 260 286 285 238 235 226 205 194 186 178 171 171 165 169 180 182 182 176 159 183 189 156 116 189 203 190 217 206 165 194 204 209 177 185 233 181 174 210 232 230 199 160 175 177 175 180 178 169 168 172 173 176 177 179 183 184
314 301 291 291 298 298 297 298 298 294 290 287 285 286 290 302 308 304 303 302 290 257 218 231 236 232 249 271 283 272 257 258 267 282 249 225 223 205 189 175 176 180 169 162 161 158 162 161 165 173 170 172 169 163 179 208 202 188 209 203 142 184 183 198 193 136 205 200 187 212 230 238 90 163 175 176 178 181 180 174 171 171 175 178 178 182 186 188
319 315 302 291 292 297 298 298 299 295 291 288 286 288 295 306 307 302 308 311 289 156 187 210 186 227 249 255 262 258 254 260 268 277 253 243 231 197 186 174 168 171 161 153 159 156 151 152 159 162 181 184 172 181 194 198 185 175 173 173 151 167 182 195 198 126 145 193 188 188 211 230 126 165 178 178 180 184 184 177 173 172 177 182 183 185 186 190
311 314 313 301 291 293 297 298 298 297 293 289 287 291 300 309 308 301 306 310 142 137 194 200 189 206 273 265 264 271 279 274 276 281 267 262 241 189 179 177 173 166 161 158 166 166 154 139 163 187 197 188 182 192 190 113 134 158 147 170 180 171 185 201 208 160 113 177 183 187 202 196 166 171 182 184 182 187 186 178 179 180 182 185 185 188 189 191
305 307 310 309 298 291 294 297 298 299 294 288 291 298 308 324 321 303 265 240 237 247 266 242 217 227 258 272 276 286 283 277 278 273 258 266 245 186 173 171 171 170 170 162 160 169 165 165 195 200 188 170 172 182 163 76 131 152 148 177 189 187 200 214 228 311 7 189 175 181 192 181 178 178 184 185 182 188 187 183 189 189 188 189 187 189 192 192
301 301 302 307 305 294 290 294 296 298 295 288 293 300 313 324 302 303 296 277 272 267 266 264 249 243 256 263 264 271 284 288 277 257 243 249 229 181 175 166 165 177 172 144 131 152 177 200 203 176 144 151 159 155 139 114 140 156 171 179 180 203 209 204 257 317 319 234 136 141 172 178 186 183 182 185 184 190 193 191 194 194 193 194 191 191 193 192
299 298 297 300 306 301 289 289 294 297 296 288 286 291 302 298 272 296 307 285 280 277 268 265 256 248 256 259 257 261 269 284 273 256 239 226 220 195 175 172 174 171 151 141 133 152 196 213 160 128 128 144 144 150 155 148 142 155 173 176 178 187 228 242 237 331 317 233 100 132 167 173 187 194 189 190 192 196 198 196 196 195 195 197 197 195 193 192
300 297 295 294 301 303 292 288 293 294 293 284 274 281 294 280 272 303 301 280 285 282 266 257 246 239 247 252 251 249 236 229 254 256 243 209 207 204 184 182 174 154 157 174 172 169 201 193 140 133 140 143 148 161 160 156 157 154 150 169 177 153 200 217 200 7 16 18 29 131 159 140 147 203 216 209 207 205 205 205 204 200 200 203 202 199 196 195
303 298 293 290 297 303 296 289 289 293 292 276 266 276 280 259 294 321 301 268 284 280 265 257 244 237 241 247 245 227 215 214 226 245 242 199 186 194 196 182 158 162 176 178 174 174 175 142 142 143 147 152 158 167 169 176 183 175 164 167 154 143 181 199 328 321 171 75 67 137 210 186 153 181 202 217 216 213 212 213 214 211 210 209 206 205 203 201
307 302 294 290 294 301 300 292 290 294 287 270 269 277 259 248 302 327 310 277 275 267 273 258 236 237 237 237 229 207 207 218 221 229 227 199 187 176 176 182 172 180 175 155 160 182 170 144 152 153 159 161 160 172 181 181 182 194 197 183 163 159 171 112 9 320 188 173 86 228 227 205 149 193 195 198 208 213 211 211 215 215 213 212 209 209 207 205
310 307 299 289 293 301 302 297 294 296 279 260 259 257 240 255 300 317 290 288 277 246 226 200 207 223 213 198 190 182 189 227 228 223 212 200 195 177 158 182 192 176 159 146 162 193 158 161 164 159 161 162 164 180 185 179 180 197 188 173 171 170 176 216 281 273 200 196 86 310 239 208 148 218 209 190 197 208 208 210 216 215 214 214 213 211 207 208
313 311 303 290 294 302 302 297 293 293 279 247 193 215 256 267 288 292 202 269 273 191 138 175 206 177 171 179 170 163 149 210 218 218 209 195 189 191 185 177 179 159 143 145 189 200 140 160 176 165 161 170 178 179 181 182 182 182 162 159 162 170 177 195 230 225 255 299 270 86 248 242 204 204 206 187 198 207 208 212 216 214 215 215 214 211 207 209
319 315 304 292 294 298 299 293 284 282 278 262 237 265 280 276 276 240 196 275 257 170 127 146 185 170 159 171 172 175 349 119 165 205 199 187 180 195 208 193 175 154 158 174 184 161 129 162 175 164 167 186 181 150 156 175 177 161 161 159 161 169 178 183 204 224 355 315 239 168 154 232 219 168 108 178 201 209 208 212 215 213 214 213 214 213 208 209
325 317 304 295 296 297 294 287 279 276 280 277 265 272 290 281 246 187 214 272 229 248 66 133 151 146 135 158 186 219 311 18 18 177 183 186 184 189 209 198 168 147 166 193 173 127 142 176 171 165 177 183 153 130 155 173 174 138 147 143 146 159 169 180 210 219 149 252 240 191 172 223 226 181 163 175 204 212 210 212 215 213 212 212 214 213 208 209
329 319 308 300 300 300 293 280 271 273 282 278 264 276 296 251 180 186 207 236 227 13 50 131 137 131 140 150 204 237 260 321 7 138 161 182 187 188 171 168 158 146 154 173 163 139 103 168 169 173 180 159 144 144 166 173 145 130 136 123 120 132 138 154 207 196 194 238 238 191 183 221 241 201 186 190 200 204 205 212 217 214 211 212 212 211 207 204
324 316 308 300 299 299 292 280 270 279 282 270 265 287 287 195 196 209 180 164 331 353 28 79 107 113 144 168 222 216 231 286 154 146 152 169 184 194 168 156 156 147 147 166 178 143 104 152 168 178 158 141 140 150 169 166 146 143 146 135 129 123 126 148 145 173 215 227 217 184 185 204 227 222 198 214 219 210 208 210 209 208 211 212 213 213 205 193
322 316 308 299 295 290 287 283 284 291 267 220 284 307 201 210 227 213 203 338 310 347 10 32 82 24 303 268 253 182 193 243 180 168 162 163 176 190 188 174 163 164 169 174 172 141 136 159 156 155 161 155 149 152 160 164 168 170 161 155 158 155 162 186 183 186 216 213 74 159 179 195 231 236 222 229 231 227 227 228 219 210 209 210 213 212 195 178
326 320 312 303 293 284 285 287 290 293 268 213 286 288 204 250 219 206 252 322 40 10 352 335 322 319 286 250 240 172 176 213 173 173 163 160 167 185 223 215 153 160 160 155 156 154 158 199 189 161 163 170 167 165 171 172 183 187 175 173 177 165 170 189 189 190 212 194 83 128 171 198 235 225 226 236 238 236 250 263 253 229 216 212 211 200 177 174
332 321 312 307 296 284 282 274 274 293 285 222 238 202 217 254 241 194 241 333 3 358 341 313 311 308 238 206 203 161 177 220 176 167 159 161 168 183 203 203 167 114 115 142 163 172 172 180 178 169 151 174 179 177 162 151 175 187 173 178 184 173 181 188 188 195 181 151 125 137 177 201 183 162 245 257 281 268 258 266 258 243 229 217 201 179 173 181
338 328 313 305 297 280 268 256 264 280 253 171 177 204 221 251 300 90 328 359 359 355 333 314 303 295 182 192 213 177 187 220 171 165 165 167 171 177 181 186 190 144 142 159 169 173 178 165 155 174 153 168 177 165 139 148 173 186 145 181 197 181 161 129 172 183 135 135 155 173 214 242 208 288 296 263 284 260 246 256 242 229 219 204 182 172 180 187
338 340 326 318 318 286 262 257 246 222 182 145 174 214 224 269 322 7 35 25 19 355 336 328 325 64 118 163 207 199 205 153 158 168 164 163 171 176 174 176 187 169 157 160 136 157 172 151 136 182 180 180 173 157 165 175 167 151 184 194 185 131 118 121 116 49 110 198 184 177 214 253 255 256 208 236 284 252 226 233 221 210 200 193 182 176 181 185
337 344 341 353 358 321 269 244 193 179 165 151 203 223 202 308 342 19 58 56 56 340 350 349 341 1 17 130 135 198 196 141 154 174 160 161 177 175 174 176 178 176 160 144 146 207 168 147 153 178 183 198 175 163 183 193 149 152 195 180 120 80 64 144 167 126 185 209 179 151 221 202 202 212 171 222 251 230 215 215 209 198 188 186 182 179 182 183
335 338 341 4 359 350 181 161 161 163 153 162 225 241 159 276 334 39 82 86 93 337 5 356 304 352 13 3 16 355 204 161 157 167 159 173 197 171 171 174 181 185 173 148 144 211 190 161 159 192 187 175 160 169 184 197 186 184 176 155 143 193 197 169 171 169 182 199 168 162 253 235 210 203 191 216 221 215 207 203 200 193 185 180 174 176 180 178
332 332 343 1 354 4 147 143 146 152 149 173 228 238 190 275 344 80 75 58 52 348 354 348 302 339 346 327 346 353 304 160 159 153 157 187 214 180 175 168 178 190 178 168 167 139 192 186 165 196 188 151 154 188 189 186 199 116 154 169 191 232 184 166 154 173 184 190 178 164 239 247 219 201 205 213 210 204 199 197 199 195 185 174 168 172 174 171
335 330 338 7 357 12 157 140 133 141 161 216 235 248 278 296 102 86 64 60 58 1 325 316 312 319 319 319 330 351 4 69 164 159 163 180 181 193 191 174 170 181 172 173 185 151 136 211 178 147 153 168 179 201 194 180 170 164 175 186 184 138 148 174 155 102 179 181 170 171 226 239 211 195 218 219 212 205 200 197 199 192 179 170 166 168 168 165
346 336 260 344 348 158 155 140 142 158 198 234 250 261 281 303 8 47 60 87 94 207 228 268 276 281 291 297 317 338 350 15 173 199 167 177 178 205 210 194 168 165 166 164 178 175 150 191 179 150 178 192 181 166 182 179 177 181 183 183 180 166 154 178 184 167 95 140 148 176 244 242 117 185 248 245 227 209 203 200 193 177 165 159 156 158 159 157
352 334 294 325 328 169 157 142 186 210 216 231 278 277 283 304 338 16 47 108 257 208 216 251 253 255 260 252 268 294 306 338 181 212 198 191 202 182 192 192 170 159 166 160 163 180 158 146 169 175 187 191 122 61 184 187 180 183 187 180 179 173 177 195 194 165 159 159 112 146 275 304 85 323 278 270 242 205 195 189 164 145 144 140 138 142 146 148
339 317 313 326 279 174 166 172 206 221 243 261 293 283 285 304 284 325 318 244 269 214 216 247 247 244 246 242 267 283 253 270 197 221 263 206 220 193 175 179 169 161 168 166 160 171 158 148 186 182 130 116 65 57 129 180 177 187 198 183 181 187 188 199 182 152 177 185 155 185 248 224 74 347 291 250 215 193 183 162 129 121 128 130 132 136 138 144
325 311 319 340 271 184 178 316 214 237 257 262 283 276 283 300 243 247 259 222 232 256 263 264 247 245 268 299 310 297 262 262 241 236 264 219 221 51 161 167 168 167 175 181 171 168 175 189 192 177 139 144 172 152 142 180 190 195 192 182 188 186 157 118 113 161 195 192 176 199 231 208 30 346 288 193 177 172 158 139 128 126 128 127 129 133 135 140
329 314 331 360 343 190 194 323 298 263 262 258 273 273 271 275 236 231 235 232 230 230 250 264 264 278 291 299 293 270 251 241 242 258 282 255 34 40 151 165 170 177 187 182 164 160 175 189 181 185 163 164 184 186 173 171 178 188 182 183 190 185 174 168 152 180 202 183 178 206 226 183 340 286 203 167 154 151 141 135 134 133 132 132 131 131 133 137
337 327 346 9 48 192 219 263 292 275 278 263 262 265 248 243 248 234 229 232 227 222 238 263 275 286 275 263 262 261 248 225 230 274 327 272 168 37 133 166 176 186 189 171 155 149 150 172 176 186 168 169 183 182 137 141 161 179 180 181 188 187 184 185 186 196 188 153 182 212 206 157 210 215 196 179 160 149 142 136 135 136 137 135 134 135 138 143
337 333 342 339 333 208 232 253 255 255 289 301 273 291 262 251 282 243 215 225 226 222 237 246 242 252 256 249 256 261 266 224 217 241 309 287 264 1 93 153 186 202 196 169 157 150 109 182 190 161 111 132 149 110 116 172 175 176 173 179 187 187 184 191 206 193 143 155 204 195 162 189 208 202 197 191 175 156 148 143 138 137 138 136 135 138 140 143
353 323 316 313 305 270 266 274 264 256 273 289 285 299 295 284 302 282 217 239 240 228 237 237 230 256 265 252 237 274 300 330 155 282 329 3 306 269 106 99 170 199 193 168 159 155 143 175 195 153 129 130 148 123 93 130 153 153 167 179 182 181 183 194 204 186 162 197 226 167 172 201 209 198 196 192 178 158 142 142 139 134 135 137 138 140 141 142
353 323 305 309 294 279 286 291 283 266 266 271 261 262 288 295 293 282 239 255 267 236 228 244 306 301 277 214 190 238 303 90 58 18 339 339 18 67 121 98 90 155 170 161 156 200 188 167 165 156 135 84 65 97 82 92 103 88 145 180 180 182 187 193 197 179 172 211 257 163 184 207 230 202 192 179 167 150 132 136 142 139 138 140 141 141 142 143
349 332 314 310 295 277 277 277 267 264 267 272 271 266 273 275 283 297 263 227 257 266 215 293 324 320 313 168 185 220 353 313 337 5 335 282 53 42 55 85 83 127 151 154 158 250 220 171 129 147 137 79 64 89 79 80 81 71 103 181 177 182 188 190 179 145 152 198 30 156 186 217 268 181 160 148 145 142 139 144 149 147 145 143 143 144 143 143
343 334 324 309 296 298 301 271 227 233 263 254 255 275 273 275 317 337 310 230 230 239 242 17 350 336 11 112 131 54 6 300 288 302 311 309 19 57 27 345 14 149 148 144 155 190 162 132 92 164 164 146 69 109 108 83 57 19 291 176 160 168 175 166 143 165 182 161 130 144 187 220 199 161 143 139 141 145 152 154 152 152 151 147 146 149 148 148
343 341 339 317 278 324 346 324 252 245 305 276 261 300 314 319 335 338 318 272 240 222 359 6 351 338 349 19 34 353 320 302 292 293 297 285 210 103 79 342 300 154 153 153 134 105 147 139 145 198 172 156 340 118 119 92 51 319 273 171 152 149 138 129 112 210 202 161 141 163 209 174 162 157 148 146 153 160 164 163 158 156 155 152 151 154 156 155